Location: Klein M�hlingen
(51.9472°N, 11.7453°E)
Time: 22:15:37
(UTC+00:00)

ISS - Pass Details

Date: 27 September 2021
Orbit: 417 x 423 km, 51.6° (Epoch: 19 October)

Event Time Altitude Azimuth Distance (km) Brightness Sun altitude
Rises 19:46:42 0° 283° (WNW) 2,368 1.2 -25.4°
Reaches altitude 10° 19:48:52 10° 275° (W) 1,502 -0.2 -25.7°
Enters shadow 19:50:18 22° 262° (W) 985 -1.4 -25.9°
